Location: Bill Sadowski Park
(25.6087°N, 80.3181°W)
Time: 15:40:48
(UTC-04:00)

Tiangong 2 - Visible Passes

Search period start: 19 June 2018 00:00
Search period end: 29 June 2018 00:00
Orbit: 291 x 297 km, 42.8° (Epoch: 19 June)

Date Brightness Start Highest point End Pass type
(mag) Time Alt. Az. Time Alt. Az. Time Alt. Az.
21 Jun 2.4 05:47:33 10° SSW 05:49:40 23° SE 05:51:47 10° E visible
22 Jun 0.5 05:53:22 12° SW 05:55:39 79° SE 05:58:12 10° NE visible
23 Jun 1.8 05:59:19 10° W 06:01:39 31° NNW 06:03:58 10° NNE visible
24 Jun 3.5 04:34:26 16° E 04:34:26 16° E 04:35:11 10° ENE visible
24 Jun 3.1 06:06:07 10° WNW 06:07:38 14° NNW 06:09:07 10° N visible
25 Jun 3.0 04:39:55 25° NE 04:39:55 25° NE 04:41:09 10° NE visible
26 Jun 3.0 04:45:14 20° N 04:45:14 20° N 04:46:31 10° NNE visible
27 Jun 3.5 04:50:24 12° NNW 04:50:24 12° NNW 04:51:11 10° N visible
